Погода в Сосновом Бору

Россия / Владимирская область     55°56′45″N   39°04′21″E
темп.,
°C
ветер,
м/с
пор.,
м/с
влажн.,
%
обл.,
%
осадки,
мм/ч
давл.,
гПа
погр.,
м
5 августа, чт
чт500:00+13сз1172100 0.0 101710
03:00+12с00775 0.0 101810
06:00+13всв11775 0.0 101821
09:00+20юв1153100 0.0 1017502
12:00+24ю114299 0.0 10171347
15:00+25ююв2437100 0.0 10152615
18:00+16з4988100 0.7 1016282
21:00+15всв3795100 2.6 1015209
6 августа, пт
пт600:00+15в4109465 0.2 1014274
03:00+14вюв2897100 0.2 1014230
06:00+14вюв1496100 0.4 1013135
09:00+16вюв2496100 1.3 1013186
12:00+17юв3894100 0.5 1013360
15:00+17юв2697100 1.7 1013259
18:00+17в1399100 4.8 1013107
21:00+16в31097100 5.6 1011283
7 августа, сб
сб700:00+15в41196100 0.3 1011334
03:00+15в399871 1.1 1010278
06:00+16в379875 1.9 1010235
09:00+19юв3684100 2.4 1010381
12:00+21ююв1587100 1.3 1010244
15:00+28ююз464996 1.3 10101282
18:00+25ююв3106689 0.0 1010625
21:00+20юв3875100 0.1 1011178
8 августа, вс
вс800:00+18юв268298 0.0 1011102
03:00+16ю2390100 0.2 101245
06:00+17св2295100 0.4 101154
09:00+19зюз1394100 1.1 1013246
12:00+22ююз3576100 0.2 1014855
15:00+23юз3474100 0.9 1015850
18:00+24ююз34610 0.1 1015928
21:00+18ююз11730 0.1 101612
9 августа, пн
пн900:00+16юз118215 0.0 101611
03:00+15з118757 0.0 101711
06:00+17зюз118499 0.0 101720
09:00+22зюз23625 0.0 1017552
12:00+26зюз34465 0.0 10171644
15:00+27зюз34395 0.0 10171755
18:00+26з12515 0.0 101787
21:00+20ю22675 0.0 101718